Wind_Speed
17 19 21 22 22 24 27 30 32 34 35 37 38 39 41 43 44 46 47 49 51 53 55 57 58 60 61 62 62 63 62 60 58 55 53 51 48 46 43 41 39 37 34 30
19 22 23 24 25 27 29 31 34 35 36 37 39 41 42 44 46 49 51 54 57 59 61 62 64 65 65 66 67 67 66 66 63 60 57 53 50 48 45 41 39 37 33 30
22 24 27 28 29 31 33 34 36 38 39 39 41 43 46 48 51 54 57 60 62 64 66 68 69 70 71 71 71 70 70 69 67 64 60 56 52 49 45 42 39 36 33 30
26 27 30 31 32 34 36 37 39 40 42 43 45 47 50 54 57 60 63 65 68 70 72 74 75 76 77 77 76 75 73 71 68 64 60 56 52 48 45 42 39 36 32 29
30 31 34 35 37 38 40 41 43 44 46 48 51 53 56 61 64 68 70 72 75 76 77 78 79 80 79 78 77 75 72 68 65 62 59 56 52 48 45 41 39 36 32 28
32 34 37 39 40 41 43 45 47 49 52 55 58 61 63 66 69 71 74 76 78 79 80 81 80 80 78 75 71 67 63 59 56 55 54 52 50 47 44 41 39 36 31 27
32 34 38 40 41 44 46 49 52 55 57 60 64 67 69 72 74 77 78 79 80 79 78 76 74 71 67 62 58 55 51 48 47 46 45 45 45 45 44 41 39 35 31 27
33 35 38 40 43 45 48 52 55 59 62 66 69 72 74 77 78 78 78 76 73 71 68 63 60 57 53 49 47 44 42 40 39 39 38 39 40 42 43 42 39 35 32 29
35 37 41 43 46 50 53 56 60 64 68 71 74 77 78 77 75 72 69 65 61 58 54 50 48 46 44 41 39 38 36 36 37 36 36 35 35 38 41 43 40 36 33 29
37 40 43 47 51 54 58 62 66 70 74 76 78 78 75 70 66 61 57 53 50 47 44 42 41 41 39 37 37 36 34 35 36 35 33 33 34 37 41 43 41 39 34 30
41 44 47 51 55 60 64 67 71 74 76 76 74 69 64 59 54 50 46 43 41 40 40 38 37 37 37 38 37 36 36 37 35 34 33 33 33 35 38 41 41 39 35 32
45 49 53 57 61 65 69 72 75 76 74 69 64 59 54 50 46 42 40 39 38 38 37 36 36 36 37 38 39 39 37 36 34 32 30 30 30 33 36 39 40 40 37 34
50 54 57 61 65 69 72 74 74 71 66 60 54 50 47 43 40 39 38 38 38 38 38 38 38 38 38 39 38 37 36 34 32 28 27 28 29 31 35 37 39 41 38 35
54 58 61 64 68 71 73 72 68 62 57 52 48 45 42 40 39 39 39 39 39 39 39 40 39 38 38 38 37 35 33 31 28 25 25 25 26 30 34 36 39 40 39 36
56 60 63 67 70 71 71 68 62 56 51 46 43 41 41 41 41 40 40 41 41 41 41 40 39 38 38 37 35 31 28 26 23 22 21 23 25 30 34 36 38 40 39 37
58 62 66 69 72 72 69 64 58 52 47 43 41 41 42 43 43 43 43 44 43 42 41 39 38 37 36 33 29 25 22 19 17 18 20 22 26 31 34 36 38 40 39 37
61 65 68 72 74 72 66 60 55 50 45 42 42 43 44 45 45 45 45 44 43 42 40 38 37 35 33 28 24 20 17 14 13 16 19 23 28 32 34 35 37 39 38 36
65 68 72 74 74 69 62 57 52 47 44 43 44 45 46 46 47 46 45 44 42 40 38 36 34 31 28 23 19 16 12 11 14 17 21 25 30 34 35 35 36 37 37 36
66 70 72 72 70 65 60 55 49 44 43 44 46 46 47 47 48 47 46 44 41 38 35 33 30 28 24 18 14 10 8 10 15 19 23 27 32 35 35 35 36 37 37 36
68 71 72 71 66 61 57 51 46 43 43 45 46 47 48 48 48 46 45 42 40 36 33 30 26 23 18 12 9 7 8 13 18 22 26 29 34 36 35 35 36 36 36 35
69 71 72 70 64 58 54 48 44 42 43 45 47 48 48 48 47 45 42 39 37 34 30 26 21 17 12 7 6 8 12 18 23 26 29 30 33 34 34 34 33 34 34 33
70 72 71 68 62 55 50 45 42 42 43 45 47 48 48 47 45 42 40 38 35 31 26 21 15 10 4 4 9 12 17 22 26 28 30 30 32 33 33 33 32 31 31 30
70 71 70 67 60 53 46 43 41 41 43 44 46 47 47 46 43 41 37 35 32 28 23 15 9 2 4 9 13 17 22 25 28 29 30 30 32 32 32 31 30 29 28 28
69 70 68 64 58 50 44 40 40 41 42 43 45 46 45 44 41 39 36 33 29 25 20 12 5 4 9 14 18 22 25 28 30 30 30 29 30 30 30 29 28 27 27 25
68 68 66 62 54 47 42 38 38 39 41 42 44 44 42 41 40 37 34 30 27 22 16 10 7 10 15 19 23 26 28 30 31 30 29 28 27 27 27 27 26 25 24 23
67 67 64 59 52 46 40 37 37 39 40 42 43 42 40 38 37 35 31 27 23 18 14 12 13 16 19 23 25 27 29 30 29 28 28 27 25 24 24 23 23 23 22 21
65 65 61 54 47 42 38 36 36 38 40 42 41 40 38 35 34 32 28 25 22 18 15 15 17 19 21 23 25 27 28 28 27 26 26 24 22 22 21 21 21 21 20 19
Wind_Direction
309 306 307 305 302 298 296 296 296 296 294 294 293 292 292 292 292 292 292 292 292 292 292 292 292 292 293 293 294 295 295 295 294 293 292 293 293 293 294 294 295 298 298 297
310 305 305 304 302 299 296 295 295 295 294 293 292 291 290 290 290 290 290 290 289 289 289 289 289 289 289 289 289 290 291 291 291 290 289 288 287 287 288 289 289 291 291 292
311 307 305 305 304 301 299 299 299 298 297 296 295 295 293 292 291 291 291 290 288 287 287 287 286 286 286 287 286 286 287 288 288 287 285 284 283 282 282 282 282 284 284 284
311 308 306 307 304 303 303 303 302 301 301 300 299 296 294 292 291 291 289 288 287 286 285 285 285 285 286 286 286 286 286 286 285 284 282 279 277 275 274 275 276 276 276 278
313 311 310 310 310 310 309 307 307 306 304 300 297 295 292 290 290 290 289 288 288 287 287 287 287 287 287 287 287 286 285 284 283 280 277 273 271 269 266 265 267 267 267 268
313 312 312 312 313 313 312 308 309 306 303 301 299 297 296 294 293 292 291 291 290 290 290 290 289 289 289 288 287 286 285 283 281 279 274 268 264 261 258 255 256 257 258 258
313 313 312 314 314 313 310 309 308 307 306 305 303 302 301 299 297 296 296 295 294 294 293 293 292 291 290 289 287 285 283 282 279 277 272 265 257 253 249 246 246 248 249 248
317 317 315 316 315 314 312 312 310 309 307 306 304 303 302 300 300 299 299 298 297 297 296 295 294 293 292 291 288 286 283 281 279 277 272 264 255 246 240 236 236 239 240 238
322 321 321 321 320 318 317 315 313 311 310 308 307 306 305 305 304 304 303 302 301 300 299 297 296 295 294 292 289 287 284 283 283 279 273 264 255 242 235 229 228 229 231 228
326 326 325 323 322 321 319 317 316 314 313 312 310 310 310 309 309 308 307 306 305 304 303 301 298 297 295 293 291 289 287 286 285 279 271 263 253 242 234 227 222 221 223 220
329 328 326 325 323 322 321 319 317 316 315 314 313 313 313 313 313 312 311 310 309 308 306 304 302 299 296 293 291 290 289 288 283 277 270 259 251 241 233 224 218 213 213 213
329 329 328 327 325 324 322 320 318 317 317 317 317 317 318 318 317 316 315 313 312 311 310 308 305 302 299 295 292 291 290 286 283 276 265 254 245 237 231 221 215 207 203 203
330 330 329 327 326 324 322 321 321 321 321 321 322 321 322 322 321 320 318 315 313 313 312 310 308 306 302 299 295 293 290 286 282 269 257 249 239 230 223 217 211 203 198 196
331 330 329 327 325 324 324 324 325 326 326 325 325 325 325 324 323 321 318 316 315 314 313 310 308 307 304 301 297 294 290 285 277 262 250 238 228 221 214 211 204 198 194 193
330 329 328 327 327 328 328 328 329 329 329 328 328 327 326 325 324 322 320 318 317 315 313 311 309 308 306 303 300 295 290 282 267 251 238 226 216 207 205 204 197 193 191 190
330 330 330 330 331 332 332 332 332 332 331 330 329 328 327 326 326 324 322 320 318 317 315 313 311 309 308 305 300 295 292 278 254 234 221 208 199 197 197 194 191 189 188 189
333 333 333 334 334 335 335 334 334 333 332 331 330 329 329 328 327 325 323 321 319 318 316 314 312 310 309 306 298 294 288 268 235 214 201 194 189 189 190 188 188 187 186 187
335 335 336 336 337 336 336 335 334 333 332 331 331 330 330 329 328 327 325 323 321 318 316 315 313 311 310 304 295 289 277 241 208 193 186 183 184 185 186 185 185 186 186 186
336 337 337 338 338 337 336 335 334 333 333 332 332 333 332 331 329 328 327 325 323 320 317 315 314 313 309 300 287 273 249 205 184 179 177 177 179 180 181 181 183 184 185 186
337 338 338 339 339 337 336 335 335 334 334 334 334 335 334 333 332 330 329 328 326 324 321 318 315 314 308 294 267 242 202 177 172 171 171 172 175 176 176 178 181 185 185 185
338 339 339 340 340 338 336 335 335 336 336 336 336 337 336 336 335 333 333 331 330 327 326 322 316 311 304 276 225 189 169 164 164 164 164 168 173 174 174 176 179 182 184 186
339 339 340 340 340 339 337 337 336 337 337 337 338 338 338 338 338 338 337 336 336 334 332 327 320 311 286 192 167 159 157 157 157 159 161 164 168 170 173 176 178 180 183 186
339 340 340 341 341 340 339 338 337 337 338 339 340 340 341 342 342 342 342 342 342 342 342 338 333 316 165 155 152 152 154 154 154 155 156 159 164 168 171 174 177 180 183 187
339 340 341 341 342 341 340 339 338 339 340 341 343 344 345 346 347 348 348 350 351 352 355 1 25 106 139 145 145 148 149 150 151 152 154 158 163 168 171 174 177 181 184 188
339 340 341 341 342 341 341 340 340 341 343 344 346 347 349 351 352 353 354 356 359 4 11 31 76 116 133 138 140 142 143 145 149 152 154 158 162 166 171 175 179 182 186 191
339 341 342 342 342 342 342 342 342 343 345 347 349 352 353 355 357 358 0 6 12 23 44 71 97 117 127 132 135 138 141 144 148 150 153 156 159 163 168 173 178 182 185 190
340 341 342 343 342 342 342 342 344 346 349 351 353 355 357 359 2 6 12 19 29 44 65 86 104 115 122 127 133 138 141 143 146 149 152 155 160 164 168 172 176 178 180 183
Height
5836 5832 5830 5828 5826 5823 5819 5815 5811 5808 5804 5799 5795 5791 5786 5782 5778 5774 5770 5766 5762 5757 5753 5749 5744 5740 5735 5731 5727 5724 5721 5719 5716 5714 5712 5710 5708 5706 5704 5701 5698 5696 5692 5689
5832 5828 5825 5823 5820 5817 5813 5809 5804 5800 5796 5791 5786 5782 5777 5772 5767 5763 5758 5753 5748 5742 5737 5732 5728 5723 5719 5715 5711 5707 5704 5702 5700 5698 5697 5696 5694 5693 5692 5690 5688 5686 5684 5681
5828 5823 5820 5817 5814 5809 5805 5800 5796 5791 5787 5781 5776 5771 5765 5760 5754 5749 5743 5737 5731 5726 5720 5714 5709 5704 5700 5696 5692 5688 5685 5683 5681 5679 5679 5679 5679 5678 5678 5678 5677 5676 5675 5674
5821 5819 5814 5813 5806 5802 5797 5792 5786 5781 5775 5770 5764 5759 5753 5746 5739 5733 5726 5720 5713 5706 5700 5694 5688 5683 5678 5674 5670 5666 5664 5661 5660 5659 5660 5660 5661 5662 5664 5665 5665 5666 5666 5665
5815 5811 5807 5803 5797 5792 5787 5782 5776 5770 5764 5758 5751 5747 5741 5731 5723 5715 5707 5699 5692 5684 5677 5671 5665 5659 5655 5651 5646 5643 5640 5638 5637 5637 5638 5640 5643 5645 5648 5650 5652 5654 5655 5656
5808 5804 5799 5795 5788 5782 5778 5771 5765 5758 5752 5745 5737 5730 5724 5714 5705 5695 5686 5677 5668 5661 5653 5646 5639 5632 5629 5625 5622 5619 5617 5615 5614 5614 5615 5618 5622 5627 5631 5635 5639 5642 5644 5647
5803 5798 5792 5787 5780 5775 5768 5763 5754 5746 5737 5729 5719 5710 5702 5691 5681 5671 5661 5652 5643 5634 5627 5620 5613 5607 5604 5602 5599 5596 5595 5594 5594 5593 5594 5597 5602 5608 5613 5619 5624 5629 5633 5637
5797 5791 5787 5779 5772 5767 5760 5750 5741 5732 5723 5712 5702 5691 5680 5669 5658 5647 5637 5627 5618 5609 5604 5597 5590 5585 5583 5582 5579 5577 5577 5576 5576 5576 5576 5579 5583 5589 5595 5603 5610 5617 5622 5627
5791 5786 5778 5770 5763 5755 5746 5738 5728 5717 5706 5694 5682 5670 5658 5646 5635 5624 5614 5605 5597 5589 5585 5580 5575 5570 5568 5566 5564 5562 5562 5561 5560 5560 5561 5563 5566 5572 5578 5586 5595 5603 5611 5617
5783 5777 5770 5762 5753 5744 5734 5723 5712 5700 5687 5673 5660 5647 5635 5624 5614 5604 5596 5588 5581 5575 5570 5566 5562 5558 5555 5553 5551 5549 5548 5548 5546 5546 5547 5548 5552 5557 5564 5571 5581 5590 5600 5607
5776 5769 5761 5753 5743 5732 5721 5709 5696 5683 5668 5654 5640 5628 5617 5607 5598 5590 5582 5576 5569 5564 5559 5555 5551 5547 5544 5540 5538 5536 5535 5534 5533 5533 5533 5535 5538 5544 5550 5559 5567 5578 5589 5598
5768 5759 5751 5741 5730 5718 5706 5693 5679 5665 5652 5638 5623 5611 5602 5594 5586 5579 5572 5566 5560 5554 5549 5545 5540 5536 5532 5528 5525 5522 5521 5520 5518 5518 5520 5522 5526 5532 5538 5547 5557 5567 5578 5589
5758 5749 5740 5729 5717 5704 5691 5678 5663 5648 5633 5621 5611 5600 5591 5583 5576 5570 5564 5557 5551 5545 5540 5535 5530 5525 5521 5516 5512 5509 5507 5506 5505 5505 5507 5511 5515 5521 5529 5538 5547 5559 5570 5580
5748 5738 5729 5718 5705 5692 5677 5662 5647 5633 5621 5609 5599 5591 5583 5575 5569 5562 5555 5548 5542 5536 5530 5524 5518 5514 5508 5503 5499 5496 5494 5493 5492 5493 5496 5501 5506 5512 5521 5531 5541 5552 5563 5574
5740 5729 5718 5705 5692 5677 5661 5646 5633 5621 5610 5600 5591 5583 5575 5568 5561 5553 5546 5539 5532 5526 5519 5513 5507 5502 5496 5491 5487 5484 5482 5481 5481 5484 5488 5493 5499 5507 5516 5526 5537 5548 5558 5569
5731 5719 5706 5692 5677 5662 5646 5632 5620 5610 5600 5591 5583 5576 5568 5560 5552 5544 5537 5529 5521 5514 5508 5501 5496 5490 5485 5481 5477 5474 5473 5472 5473 5477 5482 5488 5495 5503 5513 5523 5533 5544 5555 5565
5719 5707 5693 5679 5664 5648 5634 5621 5610 5600 5591 5583 5576 5568 5559 5551 5543 5535 5527 5518 5510 5503 5496 5490 5484 5479 5475 5471 5468 5466 5466 5466 5468 5472 5477 5484 5492 5502 5511 5521 5532 5543 5553 5563
5706 5693 5679 5664 5650 5636 5624 5613 5603 5593 5584 5576 5568 5560 5551 5542 5533 5524 5516 5507 5500 5493 5486 5480 5474 5469 5466 5463 5461 5460 5460 5462 5465 5469 5475 5483 5492 5501 5511 5521 5531 5541 5551 5561
5696 5683 5668 5654 5639 5626 5614 5604 5595 5586 5578 5569 5561 5552 5543 5533 5523 5514 5505 5497 5489 5482 5476 5470 5465 5461 5458 5456 5456 5456 5457 5460 5464 5469 5476 5484 5493 5502 5512 5522 5531 5541 5550 5559
5687 5674 5659 5645 5631 5618 5607 5597 5588 5580 5572 5563 5554 5545 5536 5526 5516 5506 5497 5488 5480 5472 5466 5461 5457 5454 5452 5451 5452 5453 5455 5459 5464 5470 5477 5486 5495 5504 5514 5523 5532 5541 5550 5559
5679 5665 5651 5638 5625 5612 5601 5591 5583 5575 5567 5558 5549 5539 5529 5519 5509 5498 5488 5480 5473 5465 5459 5454 5450 5449 5447 5448 5450 5452 5455 5460 5466 5473 5481 5489 5498 5507 5516 5525 5534 5542 5551 5559
5671 5657 5644 5631 5618 5607 5596 5587 5578 5571 5563 5554 5544 5534 5524 5514 5503 5493 5483 5474 5466 5459 5453 5449 5446 5445 5445 5447 5449 5453 5458 5463 5470 5477 5485 5493 5502 5510 5519 5527 5535 5543 5551 5559
5663 5650 5637 5624 5612 5601 5591 5583 5575 5567 5559 5550 5540 5530 5519 5508 5497 5487 5479 5471 5462 5455 5449 5446 5444 5444 5445 5448 5452 5456 5462 5467 5474 5482 5489 5497 5506 5514 5522 5530 5537 5545 5552 5559
5657 5644 5631 5618 5606 5597 5588 5580 5572 5564 5556 5547 5537 5526 5515 5505 5495 5485 5476 5468 5460 5454 5449 5446 5445 5446 5448 5452 5456 5461 5467 5473 5480 5488 5495 5503 5510 5518 5525 5532 5539 5546 5552 5559
5650 5638 5625 5613 5602 5593 5584 5577 5570 5562 5554 5545 5535 5525 5514 5503 5494 5485 5476 5468 5462 5456 5452 5450 5449 5451 5453 5458 5463 5468 5474 5480 5488 5495 5502 5508 5515 5522 5529 5535 5541 5547 5553 5559
5644 5632 5619 5607 5596 5588 5581 5574 5567 5559 5551 5542 5533 5523 5514 5504 5495 5486 5478 5471 5465 5460 5458 5457 5457 5458 5462 5466 5471 5476 5482 5488 5495 5501 5507 5514 5520 5526 5532 5537 5543 5549 5554 5559
5639 5627 5616 5605 5595 5586 5578 5572 5565 5557 5549 5540 5531 5523 5514 5506 5497 5489 5482 5476 5471 5468 5466 5466 5466 5468 5471 5475 5480 5485 5491 5497 5502 5508 5513 5519 5524 5529 5535 5540 5545 5550 5555 5559